Location: Cahas Mountain Overlook
(37.0833°N, 80.1000°W)
Time: 09:06:41
(UTC-05:00)

S-56A Canister/Altair - Pass Details

Date: 06 December 2023
Orbit: 640 x 2488 km, 38.9° (Epoch: 25 February)

Event Time Altitude Azimuth Distance (km) Brightness Sun altitude
Rises 11:47:42 0° 249° (WSW) 3,322 11.0 30.1°
Reaches altitude 10° 11:50:23 10° 248° (WSW) 2,233 10.2 30.2°
Maximum altitude 11:55:17 76° 163° (SSE) 671 8.1 30.3°
Drops below altitude 10° 11:59:44 10° 77° (ENE) 2,031 9.7 30.3°
Sets 12:02:04 0° 76° (ENE) 2,993 10.5 30.4°
